Location: Strawberry
(45.6646°N, 111.9596°W)
Time: 12:43:57
(UTC+00:00)

Vanguard 2 - Visible Passes

Search period start: 05 October 2022 00:00
Search period end: 15 October 2022 00:00
Orbit: 552 x 2935 km, 32.9° (Epoch: 05 October)

Date Brightness Start Highest point End Pass type
(mag) Time Alt. Az. Time Alt. Az. Time Alt. Az.
05 Oct 11.6 01:39:07 10° W 01:52:30 30° SSW 02:06:14 10° SSE visible
05 Oct 12.0 04:00:34 10° SW 04:01:36 10° SW 04:02:36 10° SW visible
06 Oct 11.7 01:57:07 10° W 02:09:14 25° SW 02:21:41 10° S visible
07 Oct 11.8 02:15:39 10° WSW 02:25:55 19° SW 02:36:26 10° S visible
08 Oct 12.0 02:35:23 10° WSW 02:42:33 14° SW 02:49:52 10° SSW visible
11 Oct 12.1 01:15:02 10° WSW 01:23:22 17° SW 01:32:32 10° S visible
12 Oct 12.3 01:36:05 10° SW 01:40:10 11° SW 01:44:26 10° SSW visible
